Huntington, WV

12:15 AM EST on December 14, 2019 (GMT -0500)
Tri-State / Ferguson

Weather History for KHTS - November, 2019

Change the Weather History Date:

Saturday, November 16, 2019

  Actual Average Record
Temperature  
Mean Temperature 38 °F 47 °F  
Max Temperature 48 °F 57 °F 81 °F (1931)
Min Temperature 28 °F 37 °F 16 °F (1967)
Degree Days  
Heating Degree Days 27 18  
Month to date heating degree days 387 253  
Since 1 July heating degree days 576 592  
Cooling Degree Days 0 0  
Month to date cooling degree days 0 0  
Year to date cooling degree days 1511 1132  
Moisture  
Dew Point 26 °F    
Average Humidity 65    
Maximum Humidity 85    
Minimum Humidity 45    
Precipitation  
Precipitation 0.00 in 0.12 in 1.28 in (1913)
Month to date precipitation 0.33 1.78  
Year to date precipitation 40.82 37.62  
Snow  
Snow 0.00 in 0.00 in 1.00 in (1920)
Month to date snowfall 0.1 0.2  
Since 1 September snowfall 0.1 0.3  
Snow Depth 0.00 in    
Sea Level Pressure  
Sea Level Pressure 30.27 in    
Wind  
Wind Speed 5 mph (NNE)    
Max Wind Speed 12 mph    
Max Gust Speed 15 mph    
Visibility 8 miles    
Events      
T = Trace of Precipitation, MM = Missing Value Source: NWS Daily Summary

Daily Weather History Graph

Daily Weather History Graph

Search for Another Location

Airport or City:

Astronomy

Nov. 16, 2019 Rise Set
Actual Time 7:12 AM EST 5:16 PM EST
Civil Twilight 6:44 AM EST 5:45 PM EST
Nautical Twilight 6:12 AM EST 6:17 PM EST
Astronomical Twilight 5:40 AM EST 6:48 PM EST
Moon 8:50 PM EST (11/16) 11:03 AM EST (11/16)
Length of Visible Light 11h 01m
Length of Day
10h 04m
Waning Gibbous, 82% of the Moon is Illuminated
Nov 16
Waning Gibbous
Nov 19
Last Quarter
Nov 26
New
Dec 4
First Quarter
Dec 12
Full

Hourly Weather History & Observations

Time (EST) Temp. Windchill Dew Point Humidity Pressure Visibility Wind Dir Wind Speed Gust Speed Precip Events Conditions
12:51 AM 30.9 °F 25.2 °F 25.0 °F 79% 30.31 in 8.0 mi North 5.8 mph - N/A   Clear
1:51 AM 30.0 °F 23.2 °F 25.0 °F 82% 30.30 in 7.0 mi North 6.9 mph - N/A   Clear
2:51 AM 30.0 °F 25.2 °F 24.1 °F 79% 30.30 in 7.0 mi North 4.6 mph - N/A   Clear
3:51 AM 28.9 °F 23.9 °F 24.1 °F 82% 30.30 in 6.0 mi NNE 4.6 mph - N/A   Haze
4:51 AM 28.9 °F 21.9 °F 24.1 °F 82% 30.30 in 6.0 mi NNE 6.9 mph - N/A   Haze
5:51 AM 28.9 °F 25.2 °F 24.1 °F 82% 30.31 in 6.0 mi NNE 3.5 mph - N/A   Haze
6:51 AM 28.0 °F 22.8 °F 24.1 °F 85% 30.33 in 6.0 mi NE 4.6 mph - N/A   Clear
7:51 AM 28.9 °F 22.8 °F 25.0 °F 85% 30.35 in 4.0 mi NNE 5.8 mph - N/A   Clear
8:51 AM 30.9 °F 25.2 °F 26.1 °F 82% 30.36 in 5.0 mi NE 5.8 mph - N/A   Haze
9:51 AM 34.0 °F 26.6 °F 27.0 °F 75% 30.36 in 6.0 mi NNE 9.2 mph - N/A   Haze
10:42 AM 37.0 °F 31.6 °F 28.0 °F 70% 30.33 in 7.0 mi NNE 6.9 mph - N/A   Mostly Cloudy
11:51 AM 41.0 °F 37.1 °F 28.9 °F 62% 30.31 in 10.0 mi Variable 5.8 mph - N/A   Clear
12:51 PM 44.1 °F 42.5 °F 28.0 °F 53% 30.27 in 10.0 mi Variable 3.5 mph - N/A   Clear
1:51 PM 46.9 °F - 28.9 °F 50% 30.24 in 10.0 mi North 10.4 mph - N/A   Clear
2:51 PM 46.9 °F - 27.0 °F 46% 30.22 in 10.0 mi North 6.9 mph - N/A   Clear
3:51 PM 46.9 °F - 28.0 °F 48% 30.22 in 10.0 mi North 5.8 mph - N/A   Clear
4:51 PM 45.0 °F 41.2 °F 27.0 °F 49% 30.23 in 10.0 mi NE 6.9 mph - N/A   Clear
5:51 PM 41.0 °F 37.1 °F 26.1 °F 55% 30.22 in 10.0 mi NE 5.8 mph - N/A   Clear
6:51 PM 41.0 °F 38.0 °F 26.1 °F 55% 30.23 in 10.0 mi NNE 4.6 mph - N/A   Clear
7:51 PM 39.0 °F 36.8 °F 26.1 °F 60% 30.24 in 10.0 mi NE 3.5 mph - N/A   Clear
8:51 PM 36.0 °F 32.1 °F 26.1 °F 67% 30.22 in 10.0 mi NNE 4.6 mph - N/A   Clear
9:51 PM 34.0 °F 31.0 °F 26.1 °F 73% 30.20 in 10.0 mi NE 3.5 mph - N/A   Clear
10:51 PM 34.0 °F - 26.1 °F 73% 30.19 in 10.0 mi Calm Calm - N/A   Clear
11:51 PM 30.9 °F - 25.0 °F 79% 30.17 in 10.0 mi Calm Calm - N/A   Clear